Overview Statistics Trail Chart Weather Telemetry Raw packets
 

This is the latest recevied weather packets stored in our database for station/object HP1COO-13. If no packets are shown the sender has not sent any weather packets the latest 10 day(s).

<< 12 13 14 15 16 17 18 >>
Time Temp. Humidity Pressure Rain* Wind** Luminosity Snow
1788450118 32.78° C 71% 1009.1 hPa 0 mm - - -
1788449485 32.78° C 72% 1009.4 hPa 0 mm - - -
1788448852 31.67° C 75% 1009.4 hPa 0 mm - - -
1788448219 31.67° C 75% 1009.5 hPa 0 mm - - -
1788447586 31.67° C 76% 1009.4 hPa 0 mm - - -
1788446953 31.67° C 76% 1009.4 hPa 0 mm - - -
1788446320 31.67° C 76% 1009.4 hPa 0 mm - - -
1788445687 31.11° C 77% 1009.5 hPa 0 mm - - -
1788445054 31.67° C 77% 1009.4 hPa 0 mm - - -
1788444421 31.11° C 79% 1009.1 hPa 0 mm - - -
1788443788 30.56° C 79% 1009 hPa 0 mm - - -
1788443155 30.56° C 80% 1009 hPa 0 mm - - -
1788442522 30° C 82% 1008.9 hPa 0 mm - - -
1788441889 29.44° C 84% 1009.2 hPa 0 mm - - -
1788441256 29.44° C 84% 1009 hPa 0 mm - - -
1788440623 28.89° C 85% 1009.1 hPa 0 mm - - -
1788439990 28.89° C 87% 1008.8 hPa 0 mm - - -
1788439357 28.33° C 88% 1008.7 hPa 0 mm - - -
1788438724 27.78° C 90% 1008.4 hPa 0 mm - - -
1788438091 27.78° C 91% 1008.4 hPa 0 mm - - -
1788437459 26.67° C 93% 1008.5 hPa 0 mm - - -
1788436825 26.67° C 94% 1008.6 hPa 0 mm - - -
1788436192 26.11° C 97% 1008.7 hPa 0 mm - - -
1788435560 25.56° C 97% 1008.8 hPa 0 mm - - -
1788434926 25.56° C 97% 1008.7 hPa 0 mm - - -

* Rain latest hour (hover to see other rain measurements)
** Current wind speed in m/s (hover to see current wind gust speed)